Search your local weather  

 

Hazardous Weather Conditions

No active alerts for DENVER, COLORADO

Current Conditions: DENVER, COLORADO

Mostly Cloudy


43.0 F

Last Updated on Dec 11 2019, 7:45 pm MST
Humidity: 34%
Wind Speed: W 18.4 G 26.5 mph
Barometer 29.99 in
Dewpoint: 15.8 F
Visibility: 10.00 mi
Precip: --
Heat Index: NA
Wind Chill: 35 F
Current conditions at:

Broomfield / Jeffco, CO (KBJC)

Lat: 39.90085 Lon: -105.10417

Local Radar Image active severe weather and emergency alerts image image weather storm and storm spotter reports image weather observation monitoring service image
Local
Radar
Active
Alerts
Storm Reports Weather
Monitoring

5 Day Forecast for DENVER, COLORADO (80202)

Wednesday

Mostly Cloudy

High 50 °F
Wednesday
Night
Mostly Cloudy

Low 25 °F
Thursday

Mostly Cloudy

High 49 °F
Thursday
Night
Slight Chance of Snow
Low 31 °F
Friday

Slight Chance of Rain/Snow Mix
High 50 °F
Friday
Night
Slight Chance of Snow
Low 24 °F
Saturday

Slight Chance of Snow
High 43 °F
Saturday
Night
Chance of Snow
Low 18 °F
Sunday

Chance of Snow
High 32 °F

Sign-up For Email & Text Message Weather Alert Notification Services



Advertise Here

Observation History for DENVER, COLORADO


Time Wind
(mph)
Vis
(mi)
Weather Precip (in) Temperature (F) Relative
Humidity
Wind
Chill
(°F)
Heat
Index
(°F)
Pressure
Air Dwpt altimeter
(in)
sea level
(mb)
7:45 pm MST W 18.4 G 26.5 10.00 Mostly Cloudy -- 43.0 15.8 34% 35 NA 29.99 M
6:45 pm MST W 21.9 G 28.8 10.00 Mostly Cloudy and Breezy -- 46.0 6.8 20% 38 NA 29.98 M
5:45 pm MST W 24.2 G 33.4 10.00 Mostly Cloudy and Breezy -- 50.0 3.2 14% 43 NA 29.95 M
4:45 pm MST W 28.8 G 34.5 20.00 Mostly Cloudy and Windy -- 50.0 5.0 16% 42 NA 29.92 M
3:50 pm MST W 24.2 G 33.4 20.00 Mostly Cloudy and Breezy -- 46.0 19.4 34% 38 NA 29.94 M
12:45 pm MST N 0.0 10.00 Mostly Cloudy -- 45.0 19.4 37% NA NA 29.97 M
11:45 am MST N 0.0 10.00 Mostly Cloudy -- 45.0 14.0 29% NA NA 30.01 M
10:45 am MST SE 4.6 10.00 Mostly Cloudy -- 48.0 15.8 27% 46 NA 30.06 M
9:45 am MST NE 3.5 10.00 Partly Cloudy -- 43.0 17.6 36% NA NA 30.10 M
8:45 am MST SW 4.6 10.00 Partly Cloudy -- 39.0 17.6 42% 36 NA 30.10 M
6:47 am MST W 3.5 10.00 Partly Cloudy -- 28.0 14.0 55% NA NA 30.13 M
5:47 am MST S 3.5 10.00 Partly Cloudy -- 32.0 15.8 51% NA NA 30.13 M
4:54 am MST W 4.6 10.00 Fair -- 30.0 17.6 59% 25 NA 30.13 M
3:54 am MST N 0.0 10.00 Fair -- 30.0 17.6 59% NA NA 30.14 M
2:54 am MST S 3.5 10.00 Fair -- 32.0 14.0 47% NA NA 30.15 M
1:49 am MST S 3.5 10.00 Fair -- 32.0 14.0 47% NA NA 30.16 M
12:53 am MST SW 4.6 10.00 Fair -- 32.0 19.4 60% 27 NA 30.16 M
11:52 pm MST N 0.0 10.00 Fair -- 34.0 19.4 56% NA NA 30.17 M
10:48 pm MST W 3.5 10.00 Fair -- 32.0 21.2 64% NA NA 30.18 M
9:48 pm MST SW 6.9 10.00 Fair -- 32.0 21.2 64% 26 NA 30.17 M
8:45 pm MST S 3.5 10.00 Partly Cloudy -- 34.0 21.2 60% NA NA 30.17 M

Regional Weather Observation

Erie Municipal Airport, CO (KEIK)

Fair
38.0 F

Boulder Municipal Airport, CO (KBDU)

Fair
45.0 F

Fort Collins/Loveland - Northern Colorado Regional Airport, CO (KFNL)

Fair
40.0 F

Buckley Air Force Base Airport, CO (KBKF)

Partly Cloudy
36.0 F

Denver, Denver International Airport, CO (KDEN)

Partly Cloudy
39.0 F

Denver - Centennial Airport, CO (KAPA)

A Few Clouds
33.0 F

Advertise Here


Advertise Here